Location: Benque
(43.2594°N, 0.9178°E)
Time: 03:22:51
(UTC+00:00)

Cosmos 1959 Rocket - Pass Details

Date: 24 January 2020
Orbit: 947 x 998 km, 83.0° (Epoch: 16 February)

Event Time Altitude Azimuth Distance (km) Brightness Sun altitude
Rises 18:11:09 0° 180° (S) 3,641 7.7 -13.5°
Reaches altitude 10° 18:13:40 10° 178° (S) 2,691 7.0 -14.0°
Maximum altitude 18:19:47 75° 95° (E) 992 4.4 -15.0°
Drops below altitude 10° 18:25:54 10° 11° (N) 2,683 6.6 -16.1°
Sets 18:28:23 0° 10° (N) 3,630 7.3 -16.6°
